Location: ??? ???
(33.4974°N, 35.4618°E)
Time: 17:53:50
(UTC+00:00)

Cosmos 1939 Rocket - Pass Details

Date: 29 October 2020
Orbit: 532 x 584 km, 97.4° (Epoch: 29 November)

Event Time Altitude Azimuth Distance (km) Brightness Sun altitude
Rises 15:15:39 0° 143° (SE) 2,736 6.1 -6.3°
Reaches altitude 10° 15:18:00 10° 131° (SE) 1,835 5.1 -6.7°
Maximum altitude 15:21:23 27° 73° (ENE) 1,068 3.7 -7.4°
Drops below altitude 10° 15:24:44 10° 14° (NNE) 1,820 5.2 -8.1°
Sets 15:27:03 0° 3° (N) 2,708 6.2 -8.6°
